GLO1223 SBRF-SBSV

Flight info

Callsign GLO1223
Flight time 1h 27m
Altitude FL320
Route MEXAR UZ14 AKPAS
Aircraft C172/L-S/N

Departure

Time 2026-05-07 23:17
Airport Recife/Guararapes - Gilberto Freyre International Airport (SBRF)

Arrival

Time 2026-05-08 00:44
Airport Deputado Luiz Eduardo Magalhães International Airport (SBSV)
Time Latitude Longitude Altitude Speed Heading
2026-05-07 23:04 -8.13564 -34.91804 41 ft 0 kts 70°
2026-05-07 23:08 -8.13564 -34.91801 41 ft 2 kts 70°
2026-05-07 23:08 -8.13563 -34.91800 41 ft 0 kts 70°
2026-05-07 23:09 -8.13566 -34.91808 41 ft 2 kts 70°
2026-05-07 23:09 -8.13572 -34.91825 41 ft 3 kts 70°
2026-05-07 23:10 -8.13577 -34.91840 41 ft 0 kts 70°
2026-05-07 23:10 -8.13580 -34.91846 41 ft 2 kts 70°
2026-05-07 23:10 -8.13586 -34.91862 41 ft 3 kts 56°
2026-05-07 23:11 -8.13602 -34.91873 41 ft 3 kts
2026-05-07 23:11 -8.13615 -34.91872 41 ft 0 kts 340°
2026-05-07 23:11 -8.13611 -34.91874 41 ft 2 kts 340°
2026-05-07 23:11 -8.13592 -34.91880 41 ft 5 kts 340°
2026-05-07 23:12 -8.13556 -34.91893 41 ft 8 kts 340°
2026-05-07 23:12 -8.13519 -34.91907 41 ft 10 kts 340°
2026-05-07 23:12 -8.13437 -34.91935 41 ft 13 kts 341°
2026-05-07 23:12 -8.13354 -34.91963 41 ft 13 kts 341°
2026-05-07 23:13 -8.13259 -34.91995 41 ft 16 kts 342°
2026-05-07 23:13 -8.13146 -34.92033 41 ft 19 kts 342°
2026-05-07 23:13 -8.13015 -34.92076 41 ft 21 kts 342°
2026-05-07 23:13 -8.12874 -34.92123 41 ft 21 kts 341°
2026-05-07 23:14 -8.12740 -34.92168 41 ft 20 kts 341°
2026-05-07 23:14 -8.12609 -34.92212 41 ft 20 kts 341°
2026-05-07 23:14 -8.12480 -34.92257 41 ft 19 kts 341°
2026-05-07 23:14 -8.12355 -34.92300 41 ft 19 kts 341°
2026-05-07 23:15 -8.12231 -34.92342 41 ft 18 kts 342°
2026-05-07 23:15 -8.12115 -34.92383 41 ft 15 kts 335°
2026-05-07 23:15 -8.12037 -34.92436 41 ft 13 kts 321°
2026-05-07 23:15 -8.11971 -34.92497 41 ft 11 kts 284°
2026-05-07 23:16 -8.12003 -34.92546 41 ft 7 kts 207°
2026-05-07 23:16 -8.12040 -34.92543 41 ft 7 kts 160°
2026-05-07 23:16 -8.12319 -34.92451 41 ft 86 kts 161°
2026-05-07 23:16 -8.13159 -34.92163 53 ft 160 kts 160°
2026-05-07 23:17 -8.14296 -34.91765 628 ft 186 kts 160°
2026-05-07 23:17 -8.15651 -34.91285 1427 ft 227 kts 160°
2026-05-07 23:17 -8.17228 -34.90719 2523 ft 243 kts 160°
2026-05-07 23:17 -8.18841 -34.90298 3895 ft 246 kts 173°
2026-05-07 23:18 -8.20563 -34.90507 5154 ft 251 kts 192°
2026-05-07 23:18 -8.22260 -34.90994 6396 ft 256 kts 194°
2026-05-07 23:18 -8.24028 -34.91444 7272 ft 272 kts 190°
2026-05-07 23:18 -8.25912 -34.91858 7703 ft 278 kts 188°
2026-05-07 23:19 -8.27792 -34.92222 7978 ft 277 kts 187°
2026-05-07 23:19 -8.29698 -34.92560 7999 ft 277 kts 186°
2026-05-07 23:19 -8.31587 -34.92854 8001 ft 276 kts 185°
2026-05-07 23:19 -8.33484 -34.93138 8001 ft 276 kts 185°
2026-05-07 23:20 -8.35378 -34.93430 8001 ft 276 kts 186°
2026-05-07 23:20 -8.37274 -34.93723 8000 ft 276 kts 186°
2026-05-07 23:20 -8.39172 -34.94014 8001 ft 276 kts 186°
2026-05-07 23:20 -8.41040 -34.94310 8001 ft 276 kts 186°
2026-05-07 23:21 -8.42950 -34.94648 7997 ft 277 kts 189°
2026-05-07 23:21 -8.44749 -34.95380 8022 ft 281 kts 206°
2026-05-07 23:21 -8.46399 -34.96476 8709 ft 289 kts 212°
2026-05-07 23:21 -8.48030 -34.97644 10027 ft 287 kts 212°
2026-05-07 23:22 -8.49672 -34.98843 11099 ft 295 kts 213°
2026-05-07 23:22 -8.51331 -35.00082 12172 ft 299 kts 214°
2026-05-07 23:22 -8.53007 -35.01330 13185 ft 304 kts 214°
2026-05-07 23:22 -8.54728 -35.02610 14181 ft 309 kts 214°
2026-05-07 23:23 -8.56451 -35.03892 15158 ft 312 kts 215°
2026-05-07 23:23 -8.58155 -35.05160 16219 ft 312 kts 215°
2026-05-07 23:23 -8.59961 -35.06503 17220 ft 315 kts 216°
2026-05-07 23:23 -8.61727 -35.07817 18107 ft 319 kts 216°
2026-05-07 23:24 -8.63525 -35.09154 18927 ft 324 kts 217°
2026-05-07 23:24 -8.65351 -35.10513 19678 ft 331 kts 218°
2026-05-07 23:24 -8.67218 -35.11901 20489 ft 335 kts 218°
2026-05-07 23:24 -8.69105 -35.13305 21226 ft 340 kts 219°
2026-05-07 23:25 -8.71021 -35.14730 21930 ft 346 kts 219°
2026-05-07 23:25 -8.72962 -35.16175 22595 ft 352 kts 220°
2026-05-07 23:25 -8.74948 -35.17652 23230 ft 358 kts 220°
2026-05-07 23:25 -8.76955 -35.19145 23826 ft 364 kts 220°
2026-05-07 23:26 -8.79015 -35.20677 24408 ft 371 kts 220°
2026-05-07 23:26 -8.81102 -35.22219 24971 ft 377 kts 220°
2026-05-07 23:26 -8.83244 -35.23796 25526 ft 383 kts 220°
2026-05-07 23:26 -8.85402 -35.25388 26117 ft 387 kts 220°
2026-05-07 23:27 -8.89843 -35.28565 27214 ft 397 kts 219°
2026-05-07 23:27 -8.91686 -35.29877 27647 ft 400 kts 219°
2026-05-07 23:27 -8.94409 -35.31790 28203 ft 407 kts 219°
2026-05-07 23:28 -8.96737 -35.33425 28658 ft 412 kts 219°
2026-05-07 23:28 -8.99105 -35.35090 29176 ft 416 kts 219°
2026-05-07 23:28 -9.01499 -35.36772 29650 ft 420 kts 219°
2026-05-07 23:28 -9.03889 -35.38448 30109 ft 424 kts 218°
2026-05-07 23:29 -9.06333 -35.40169 30566 ft 429 kts 218°
2026-05-07 23:29 -9.08783 -35.41892 31000 ft 432 kts 218°
2026-05-07 23:29 -9.11261 -35.43631 31430 ft 436 kts 218°
2026-05-07 23:29 -9.13759 -35.45393 31840 ft 440 kts 218°
2026-05-07 23:30 -9.16263 -35.47151 31989 ft 450 kts 218°
2026-05-07 23:30 -9.18890 -35.48997 32000 ft 460 kts 217°
2026-05-07 23:30 -9.23801 -35.52449 32010 ft 474 kts 217°
2026-05-07 23:31 -9.28826 -35.55930 32009 ft 487 kts 217°
2026-05-07 23:31 -9.34601 -35.59947 32007 ft 498 kts 217°
2026-05-07 23:32 -9.40346 -35.64005 32006 ft 507 kts 217°
2026-05-07 23:32 -9.46135 -35.68102 32007 ft 512 kts 217°
2026-05-07 23:33 -9.51998 -35.72209 32006 ft 514 kts 217°
2026-05-07 23:33 -9.57805 -35.76383 32006 ft 513 kts 218°
2026-05-07 23:34 -9.63641 -35.80550 32007 ft 514 kts 217°
2026-05-07 23:34 -9.69492 -35.84677 32008 ft 514 kts 218°
2026-05-07 23:35 -9.75347 -35.88792 32008 ft 514 kts 218°
2026-05-07 23:35 -9.81205 -35.92946 32008 ft 514 kts 217°
2026-05-07 23:36 -9.87036 -35.97078 32008 ft 514 kts 218°
2026-05-07 23:36 -9.92899 -36.01227 32007 ft 512 kts 218°
2026-05-07 23:37 -9.98711 -36.05338 32008 ft 508 kts 218°
2026-05-07 23:37 -10.04444 -36.09392 32008 ft 508 kts 218°
2026-05-07 23:38 -10.10268 -36.13524 32008 ft 508 kts 218°
2026-05-07 23:38 -10.16034 -36.17609 32003 ft 509 kts 218°
2026-05-07 23:39 -10.21839 -36.21727 32001 ft 509 kts 218°
2026-05-07 23:39 -10.27614 -36.25824 32001 ft 509 kts 218°
2026-05-07 23:40 -10.33395 -36.29933 32001 ft 509 kts 218°
2026-05-07 23:40 -10.39177 -36.34041 32001 ft 509 kts 218°
2026-05-07 23:41 -10.44979 -36.38161 31999 ft 508 kts 219°
2026-05-07 23:41 -10.50746 -36.42260 31999 ft 508 kts 219°
2026-05-07 23:42 -10.56507 -36.46394 31999 ft 508 kts 219°
2026-05-07 23:42 -10.62273 -36.50500 31999 ft 508 kts 219°
2026-05-07 23:43 -10.68034 -36.54537 31997 ft 499 kts 220°
2026-05-07 23:43 -10.72590 -36.57771 31995 ft 498 kts 220°
2026-05-07 23:44 -10.77100 -36.60982 31996 ft 499 kts 220°
2026-05-07 23:44 -10.83217 -36.65359 31997 ft 498 kts 220°
2026-05-07 23:45 -10.88811 -36.69392 31997 ft 492 kts 220°
2026-05-07 23:45 -10.94379 -36.73408 31997 ft 491 kts 220°
2026-05-07 23:46 -10.99949 -36.77426 31997 ft 492 kts 220°
2026-05-07 23:46 -11.05501 -36.81432 31997 ft 491 kts 220°
2026-05-07 23:47 -11.11033 -36.85424 31997 ft 490 kts 220°
2026-05-07 23:47 -11.16585 -36.89433 31997 ft 488 kts 220°
2026-05-07 23:48 -11.22120 -36.93406 31998 ft 489 kts 220°
2026-05-07 23:48 -11.27674 -36.97416 31998 ft 489 kts 220°
2026-05-07 23:49 -11.33177 -37.01392 31997 ft 489 kts 220°
2026-05-07 23:49 -11.38655 -37.05327 31998 ft 481 kts 220°
2026-05-07 23:50 -11.44136 -37.09291 31999 ft 479 kts 220°
2026-05-07 23:50 -11.49556 -37.13211 31999 ft 479 kts 220°
2026-05-07 23:51 -11.55000 -37.17125 32000 ft 479 kts 220°
2026-05-07 23:51 -11.60404 -37.21037 32001 ft 477 kts 219°
2026-05-07 23:52 -11.65804 -37.24945 32001 ft 477 kts 219°
2026-05-07 23:52 -11.70199 -37.28127 32001 ft 477 kts 219°
2026-05-07 23:53 -11.75594 -37.32034 32001 ft 477 kts 219°
2026-05-07 23:53 -11.80997 -37.35947 32000 ft 476 kts 219°
2026-05-07 23:54 -11.83649 -37.37862 31946 ft 460 kts 219°
2026-05-07 23:54 -11.86206 -37.39694 31847 ft 440 kts 219°
2026-05-07 23:54 -11.88649 -37.41452 31758 ft 422 kts 219°
2026-05-07 23:54 -11.91020 -37.43129 31492 ft 410 kts 219°
2026-05-07 23:55 -11.93354 -37.44795 30843 ft 408 kts 220°
2026-05-07 23:55 -11.95528 -37.46556 30320 ft 404 kts 224°
2026-05-07 23:55 -11.97640 -37.48417 29724 ft 395 kts 225°
2026-05-07 23:55 -11.99699 -37.50251 28965 ft 393 kts 224°
2026-05-07 23:56 -12.01782 -37.52049 28300 ft 388 kts 223°
2026-05-07 23:56 -12.03820 -37.53801 27626 ft 384 kts 223°
2026-05-07 23:56 -12.05179 -37.54965 27024 ft 386 kts 223°
2026-05-07 23:56 -12.07913 -37.57309 26141 ft 381 kts 222°
2026-05-07 23:57 -12.09926 -37.59033 25534 ft 376 kts 222°
2026-05-07 23:57 -12.11913 -37.60734 24868 ft 373 kts 222°
2026-05-07 23:57 -12.13869 -37.62409 24251 ft 369 kts 221°
2026-05-07 23:57 -12.15843 -37.64100 23619 ft 365 kts 221°
2026-05-07 23:58 -12.17775 -37.65754 23000 ft 361 kts 221°
2026-05-07 23:58 -12.19685 -37.67393 22386 ft 358 kts 221°
2026-05-07 23:58 -12.21577 -37.69017 21776 ft 354 kts 221°
2026-05-07 23:58 -12.23443 -37.70617 21175 ft 351 kts 221°
2026-05-07 23:59 -12.25305 -37.72213 20557 ft 348 kts 221°
2026-05-07 23:59 -12.27152 -37.73795 19961 ft 344 kts 221°
2026-05-07 23:59 -12.28970 -37.75354 19384 ft 341 kts 221°
2026-05-07 23:59 -12.30776 -37.76901 18843 ft 336 kts 221°
2026-05-08 00:00 -12.32547 -37.78418 18325 ft 331 kts 221°
2026-05-08 00:00 -12.34295 -37.79916 17761 ft 328 kts 220°
2026-05-08 00:00 -12.36038 -37.81411 17185 ft 325 kts 220°
2026-05-08 00:00 -12.37754 -37.82882 16591 ft 323 kts 219°
2026-05-08 00:01 -12.39143 -37.84073 16226 ft 319 kts 219°
2026-05-08 00:01 -12.41131 -37.85779 16058 ft 317 kts 219°
2026-05-08 00:01 -12.42834 -37.87240 16017 ft 323 kts 219°
2026-05-08 00:01 -12.44542 -37.88704 16012 ft 323 kts 219°
2026-05-08 00:02 -12.46262 -37.90181 16012 ft 323 kts 219°
2026-05-08 00:02 -12.47978 -37.91651 16013 ft 322 kts 219°
2026-05-08 00:02 -12.49692 -37.93126 16014 ft 322 kts 219°
2026-05-08 00:02 -12.51403 -37.94597 16014 ft 322 kts 219°
2026-05-08 00:03 -12.53118 -37.96062 16014 ft 322 kts 219°
2026-05-08 00:03 -12.54861 -37.97498 16004 ft 322 kts 218°
2026-05-08 00:03 -12.56600 -37.98933 16000 ft 322 kts 218°
2026-05-08 00:03 -12.58319 -38.00355 15705 ft 317 kts 218°
2026-05-08 00:04 -12.60028 -38.01773 15152 ft 317 kts 218°
2026-05-08 00:04 -12.60132 -38.01859 15119 ft 316 kts 218°
2026-05-08 00:04 -12.60860 -38.02463 14884 ft 316 kts 218°
2026-05-08 00:04 -12.62571 -38.03882 14329 ft 314 kts 218°
2026-05-08 00:05 -12.64254 -38.05279 13780 ft 312 kts 218°
2026-05-08 00:05 -12.65798 -38.06559 13274 ft 311 kts 218°
2026-05-08 00:05 -12.67300 -38.07809 12792 ft 309 kts 217°
2026-05-08 00:05 -12.68961 -38.09185 12242 ft 308 kts 217°
2026-05-08 00:06 -12.70608 -38.10552 11695 ft 307 kts 217°
2026-05-08 00:06 -12.72262 -38.11925 11143 ft 305 kts 217°
2026-05-08 00:06 -12.73864 -38.13257 10606 ft 304 kts 216°
2026-05-08 00:06 -12.75509 -38.14652 10181 ft 299 kts 219°
2026-05-08 00:07 -12.76803 -38.16315 9854 ft 295 kts 238°
2026-05-08 00:07 -12.77523 -38.18248 9563 ft 290 kts 251°
2026-05-08 00:07 -12.78024 -38.20223 9262 ft 284 kts 254°
2026-05-08 00:07 -12.78471 -38.22161 8966 ft 278 kts 255°
2026-05-08 00:08 -12.78871 -38.24074 8680 ft 270 kts 256°
2026-05-08 00:08 -12.79249 -38.25922 8384 ft 264 kts 256°
2026-05-08 00:08 -12.79621 -38.27729 8082 ft 259 kts 256°
2026-05-08 00:08 -12.79991 -38.29520 7777 ft 254 kts 256°
2026-05-08 00:09 -12.80353 -38.31278 7475 ft 250 kts 256°
2026-05-08 00:09 -12.80707 -38.33001 7173 ft 246 kts 256°
2026-05-08 00:09 -12.81055 -38.34699 7011 ft 237 kts 256°
2026-05-08 00:09 -12.81393 -38.36288 6996 ft 221 kts 255°
2026-05-08 00:10 -12.81712 -38.37785 6871 ft 213 kts 255°
2026-05-08 00:10 -12.82010 -38.39265 6606 ft 210 kts 256°
2026-05-08 00:10 -12.82292 -38.40695 6283 ft 203 kts 255°
2026-05-08 00:10 -12.82573 -38.42113 5788 ft 205 kts 255°
2026-05-08 00:11 -12.82856 -38.43543 5292 ft 207 kts 255°
2026-05-08 00:11 -12.83144 -38.44998 4790 ft 208 kts 255°
2026-05-08 00:11 -12.83433 -38.46452 4292 ft 208 kts 255°
2026-05-08 00:11 -12.83712 -38.47867 4039 ft 197 kts 255°
2026-05-08 00:12 -12.83969 -38.49177 3887 ft 180 kts 255°
2026-05-08 00:12 -12.84210 -38.50364 3688 ft 162 kts 253°
2026-05-08 00:12 -12.84595 -38.51382 3377 ft 147 kts 235°
2026-05-08 00:12 -12.85340 -38.51983 3042 ft 131 kts 198°
2026-05-08 00:13 -12.86199 -38.52045 2764 ft 121 kts 172°
2026-05-08 00:13 -12.87021 -38.51910 2477 ft 119 kts 166°
2026-05-08 00:13 -12.87835 -38.51745 2176 ft 119 kts 165°
2026-05-08 00:13 -12.88633 -38.51579 1871 ft 117 kts 165°
2026-05-08 00:14 -12.89419 -38.51416 1657 ft 113 kts 165°
2026-05-08 00:14 -12.90032 -38.51287 1650 ft 110 kts 164°
2026-05-08 00:14 -12.90929 -38.51090 1726 ft 116 kts 164°
2026-05-08 00:14 -12.91711 -38.50927 1691 ft 113 kts 165°
2026-05-08 00:15 -12.92477 -38.50760 1707 ft 113 kts 164°
2026-05-08 00:15 -12.93254 -38.50585 1699 ft 114 kts 163°
2026-05-08 00:15 -12.93926 -38.50221 1640 ft 110 kts 136°
2026-05-08 00:15 -12.94159 -38.49488 1717 ft 112 kts 100°
2026-05-08 00:16 -12.94107 -38.48671 1762 ft 117 kts 88°
2026-05-08 00:16 -12.93979 -38.47850 1703 ft 115 kts 84°
2026-05-08 00:16 -12.93831 -38.47060 1696 ft 114 kts 83°
2026-05-08 00:16 -12.93673 -38.46260 1708 ft 116 kts 83°
2026-05-08 00:17 -12.93510 -38.45458 1692 ft 114 kts 83°
2026-05-08 00:17 -12.93349 -38.44664 1712 ft 116 kts 82°
2026-05-08 00:17 -12.93187 -38.43859 1691 ft 114 kts 83°
2026-05-08 00:17 -12.93027 -38.43076 1706 ft 114 kts 82°
2026-05-08 00:18 -12.92862 -38.42271 1670 ft 115 kts 82°
2026-05-08 00:18 -12.92697 -38.41464 1537 ft 114 kts 82°
2026-05-08 00:18 -12.92535 -38.40671 1393 ft 114 kts 82°
2026-05-08 00:18 -12.92373 -38.39879 1249 ft 114 kts 82°
2026-05-08 00:19 -12.92211 -38.39088 1105 ft 114 kts 82°
2026-05-08 00:19 -12.92037 -38.38290 959 ft 114 kts 81°
2026-05-08 00:19 -12.91864 -38.37503 815 ft 114 kts 82°
2026-05-08 00:19 -12.91707 -38.36712 671 ft 113 kts 83°
2026-05-08 00:20 -12.91554 -38.35924 527 ft 114 kts 82°
2026-05-08 00:20 -12.91386 -38.35137 384 ft 113 kts 82°
2026-05-08 00:20 -12.91225 -38.34348 239 ft 113 kts 82°
2026-05-08 00:20 -12.91058 -38.33565 108 ft 112 kts 81°
2026-05-08 00:21 -12.90909 -38.32840 72 ft 90 kts 82°
2026-05-08 00:21 -12.90831 -38.32230 75 ft 109 kts 86°
2026-05-08 00:21 -12.90744 -38.31378 594 ft 131 kts 88°
2026-05-08 00:21 -12.90531 -38.30513 1493 ft 119 kts 78°
2026-05-08 00:22 -12.90346 -38.29611 2032 ft 140 kts 84°
2026-05-08 00:22 -12.90232 -38.28646 2843 ft 134 kts 88°
2026-05-08 00:22 -12.90147 -38.27661 3436 ft 144 kts 89°
2026-05-08 00:22 -12.90012 -38.26636 4109 ft 145 kts 84°
2026-05-08 00:23 -12.89703 -38.25605 4512 ft 165 kts 72°
2026-05-08 00:23 -12.89164 -38.24587 4950 ft 148 kts 65°
2026-05-08 00:23 -12.88680 -38.23714 5257 ft 134 kts 65°
2026-05-08 00:23 -12.88234 -38.22922 5218 ft 123 kts 65°
2026-05-08 00:24 -12.87818 -38.22213 5113 ft 115 kts 65°
2026-05-08 00:24 -12.87385 -38.21493 4862 ft 124 kts 64°
2026-05-08 00:24 -12.86930 -38.20744 4751 ft 121 kts 64°
2026-05-08 00:24 -12.86491 -38.20038 4686 ft 117 kts 64°
2026-05-08 00:25 -12.86047 -38.19331 4538 ft 119 kts 63°
2026-05-08 00:25 -12.85596 -38.18612 4411 ft 120 kts 63°
2026-05-08 00:25 -12.85139 -38.17879 4389 ft 130 kts 64°
2026-05-08 00:25 -12.84699 -38.17079 5033 ft 132 kts 69°
2026-05-08 00:26 -12.84631 -38.16013 5090 ft 173 kts 97°
2026-05-08 00:26 -12.84923 -38.14788 4671 ft 176 kts 108°
2026-05-08 00:26 -12.85450 -38.13839 4764 ft 134 kts 126°
2026-05-08 00:26 -12.86062 -38.13239 4471 ft 126 kts 139°
2026-05-08 00:27 -12.86808 -38.12699 3908 ft 135 kts 144°
2026-05-08 00:27 -12.87650 -38.12242 3358 ft 142 kts 153°
2026-05-08 00:27 -12.88596 -38.12043 3016 ft 138 kts 173°
2026-05-08 00:27 -12.89326 -38.12309 2903 ft 135 kts 204°
2026-05-08 00:28 -12.90032 -38.13172 2997 ft 143 kts 233°
2026-05-08 00:28 -12.90404 -38.14203 3081 ft 167 kts 248°
2026-05-08 00:28 -12.90759 -38.15377 3056 ft 174 kts 249°
2026-05-08 00:28 -12.91100 -38.16543 3004 ft 172 kts 249°
2026-05-08 00:29 -12.91438 -38.17715 3002 ft 172 kts 249°
2026-05-08 00:29 -12.91779 -38.18896 3001 ft 172 kts 249°
2026-05-08 00:29 -12.92118 -38.20073 3000 ft 173 kts 249°
2026-05-08 00:29 -12.92453 -38.21241 3000 ft 172 kts 250°
2026-05-08 00:30 -12.92789 -38.22414 2996 ft 173 kts 249°
2026-05-08 00:30 -12.93128 -38.23590 2999 ft 172 kts 249°
2026-05-08 00:30 -12.93462 -38.24761 3008 ft 172 kts 250°
2026-05-08 00:30 -12.93804 -38.25938 2984 ft 172 kts 249°
2026-05-08 00:31 -12.94142 -38.27112 2877 ft 172 kts 249°
2026-05-08 00:31 -12.94481 -38.28283 2765 ft 171 kts 249°
2026-05-08 00:31 -12.94821 -38.29452 2652 ft 171 kts 249°
2026-05-08 00:31 -12.95155 -38.30611 2540 ft 171 kts 250°
2026-05-08 00:32 -12.95499 -38.31782 2426 ft 170 kts 249°
2026-05-08 00:32 -12.95823 -38.32948 2310 ft 171 kts 251°
2026-05-08 00:32 -12.96182 -38.34092 2200 ft 169 kts 247°
2026-05-08 00:32 -12.96561 -38.35232 2086 ft 169 kts 248°
2026-05-08 00:33 -12.96909 -38.36385 1972 ft 169 kts 249°
2026-05-08 00:33 -12.97167 -38.37562 1860 ft 170 kts 256°
2026-05-08 00:33 -12.97370 -38.38744 1747 ft 170 kts 257°
2026-05-08 00:33 -12.97559 -38.39932 1700 ft 169 kts 258°
2026-05-08 00:34 -12.97750 -38.41128 1701 ft 171 kts 257°
2026-05-08 00:34 -12.97940 -38.42312 1701 ft 169 kts 257°
2026-05-08 00:34 -12.98131 -38.43517 1698 ft 170 kts 257°
2026-05-08 00:34 -12.98317 -38.44706 1698 ft 170 kts 258°
2026-05-08 00:35 -12.98506 -38.45896 1700 ft 170 kts 257°
2026-05-08 00:35 -12.98694 -38.47090 1700 ft 170 kts 257°
2026-05-08 00:35 -12.98814 -38.48286 1679 ft 172 kts 266°
2026-05-08 00:35 -12.98884 -38.49489 1745 ft 168 kts 252°
2026-05-08 00:36 -12.99242 -38.50616 2019 ft 171 kts 247°
2026-05-08 00:36 -12.99628 -38.51782 1954 ft 172 kts 248°
2026-05-08 00:36 -12.99683 -38.52995 1648 ft 173 kts 280°
2026-05-08 00:36 -12.98977 -38.53814 1582 ft 144 kts 334°
2026-05-08 00:37 -12.98074 -38.53729 1678 ft 128 kts 27°
2026-05-08 00:37 -12.97476 -38.53111 1774 ft 120 kts 56°
2026-05-08 00:37 -12.96914 -38.52476 1730 ft 122 kts 53°
2026-05-08 00:38 -12.95962 -38.51104 1701 ft 117 kts 68°
2026-05-08 00:38 -12.95618 -38.50350 1700 ft 117 kts 70°
2026-05-08 00:38 -12.95185 -38.49635 1699 ft 118 kts 63°
2026-05-08 00:38 -12.94747 -38.48913 1698 ft 118 kts 65°
2026-05-08 00:39 -12.94367 -38.48191 1701 ft 117 kts 69°
2026-05-08 00:39 -12.94067 -38.47416 1696 ft 115 kts 76°
2026-05-08 00:39 -12.93828 -38.46636 1698 ft 115 kts 78°
2026-05-08 00:39 -12.93625 -38.45850 1699 ft 114 kts 81°
2026-05-08 00:40 -12.93445 -38.45059 1704 ft 115 kts 82°
2026-05-08 00:40 -12.93275 -38.44259 1692 ft 113 kts 83°
2026-05-08 00:40 -12.93110 -38.43463 1707 ft 115 kts 83°
2026-05-08 00:40 -12.92952 -38.42695 1694 ft 114 kts 83°
2026-05-08 00:41 -12.92789 -38.41904 1617 ft 115 kts 83°
2026-05-08 00:41 -12.92625 -38.41107 1473 ft 114 kts 83°
2026-05-08 00:41 -12.92464 -38.40319 1330 ft 113 kts 83°
2026-05-08 00:41 -12.92303 -38.39534 1187 ft 113 kts 83°
2026-05-08 00:42 -12.92140 -38.38736 1041 ft 113 kts 83°
2026-05-08 00:42 -12.92033 -38.38215 946 ft 113 kts 83°
2026-05-08 00:42 -12.91819 -38.37169 755 ft 113 kts 83°
2026-05-08 00:42 -12.91659 -38.36388 613 ft 112 kts 83°
2026-05-08 00:43 -12.91499 -38.35606 469 ft 112 kts 83°
2026-05-08 00:43 -12.91340 -38.34829 328 ft 112 kts 83°
2026-05-08 00:43 -12.91181 -38.34050 186 ft 112 kts 83°
2026-05-08 00:43 -12.91023 -38.33279 81 ft 108 kts 83°
2026-05-08 00:44 -12.90897 -38.32620 71 ft 80 kts 81°
2026-05-08 00:44 -12.90802 -38.32158 71 ft 56 kts 77°
2026-05-08 00:44 -12.90731 -38.31820 71 ft 41 kts 76°
2026-05-08 00:44 -12.90701 -38.31695 71 ft 8 kts 77°
2026-05-08 00:45 -12.90691 -38.31646 71 ft 6 kts 88°
2026-05-08 00:45 -12.90699 -38.31614 71 ft 4 kts 124°
2026-05-08 00:45 -12.90716 -38.31604 71 ft 3 kts 165°
2026-05-08 00:45 -12.90736 -38.31602 71 ft 3 kts 173°
2026-05-08 00:46 -12.90763 -38.31599 71 ft 5 kts 173°
2026-05-08 00:46 -12.90810 -38.31611 71 ft 10 kts 235°
2026-05-08 00:46 -12.90830 -38.31710 71 ft 17 kts 258°
2026-05-08 00:46 -12.90858 -38.31845 71 ft 23 kts 257°
2026-05-08 00:47 -12.90901 -38.32029 71 ft 23 kts 260°
2026-05-08 00:47 -12.90931 -38.32186 71 ft 21 kts 258°
2026-05-08 00:47 -12.90958 -38.32324 71 ft 21 kts 259°
2026-05-08 00:47 -12.90989 -38.32479 71 ft 23 kts 257°
2026-05-08 00:48 -12.91015 -38.32600 71 ft 15 kts 258°
2026-05-08 00:48 -12.91040 -38.32714 71 ft 18 kts 257°
2026-05-08 00:48 -12.91064 -38.32839 71 ft 18 kts 258°
2026-05-08 00:48 -12.91093 -38.32976 71 ft 21 kts 257°
2026-05-08 00:49 -12.91124 -38.33105 71 ft 23 kts 256°
2026-05-08 00:49 -12.91157 -38.33233 71 ft 14 kts 256°
2026-05-08 00:49 -12.91182 -38.33316 71 ft 9 kts 232°
2026-05-08 00:49 -12.91232 -38.33328 71 ft 7 kts 157°
2026-05-08 00:50 -12.91283 -38.33313 71 ft 8 kts 167°
2026-05-08 00:50 -12.91320 -38.33304 71 ft 2 kts 167°
2026-05-08 00:50 -12.91323 -38.33303 71 ft 0 kts 167°